Location: Bern�tre
(50.1974°N, 2.0915°E)
Time: 06:21:44
(UTC+00:00)

Cosmos 1833 Rocket - Pass Details

Date: 18 September 2020
Orbit: 831 x 841 km, 71.0° (Epoch: 22 October)

Event Time Altitude Azimuth Distance (km) Brightness Sun altitude
Rises 21:42:28 0° 328° (NNW) 3,408 7.0 -32.1°
Reaches altitude 10° 21:44:58 10° 324° (NW) 2,469 6.0 -32.3°
Enters shadow 21:49:19 47° 291° (WNW) 1,105 3.5 -32.7°
